Location: Casteau
(50.5142°N, 4.0161°E)
Time: 06:34:14
(UTC+00:00)

Tiros 1 despin weight - Visible Passes

Search period start: 24 July 2021 00:00
Search period end: 03 August 2021 00:00
Orbit: 593 x 641 km, 48.2° (Epoch: 23 July)

Date Brightness Start Highest point End Pass type
(mag) Time Alt. Az. Time Alt. Az. Time Alt. Az.
24 Jul ? 20:34:31 10° W 20:38:55 43° SSW 20:43:03 11° SE visible
24 Jul ? 22:16:59 10° WSW 22:19:40 15° SW 22:20:04 15° SW visible
25 Jul ? 20:50:55 10° W 20:54:59 31° SSW 20:58:18 14° SSE visible
26 Jul ? 21:07:31 10° W 21:10:57 20° SW 21:13:35 13° S visible
27 Jul ? 21:24:50 10° WSW 21:26:47 12° SW 21:28:43 10° SSW visible
29 Jul ? 20:15:03 10° W 20:18:04 17° SW 20:21:04 10° S visible
